Location: Newark
(44.6028°N, 124.0883°W)
Time: 22:36:12
(UTC+00:00)

Vanguard 1 Rocket - Pass Details

Date: 27 October 2019
Orbit: 651 x 4225 km, 34.3° (Epoch: 10 November)

Event Time Altitude Azimuth Distance (km) Brightness Sun altitude
Rises 16:24:42 0° 221° (SW) 4,209 10.8 14.7°
Reaches altitude 10° 16:27:15 10° 212° (SSW) 3,567 10.5 15.0°
Maximum altitude 16:35:58 39° 148° (SSE) 2,961 11.3 16.3°
Drops below altitude 10° 16:51:33 10° 89° (E) 6,321 12.5 18.4°
Sets 16:57:59 0° 83° (E) 7,830 12.8 19.3°
